Location: Unspecified
(0.0000°N, 0.0000°E)
Time: 06:57:44
(UTC+00:00)

NOSS 3-1 (A) - Pass Details

Date: 29 April 2019
Orbit: 778 x 1434 km, 63.4° (Epoch: 13 May)

Event Time Altitude Azimuth Distance (km) Brightness Sun altitude
Rises 03:34:44 0° 338° (NNW) 4,390 6.9 -34.4°
Reaches altitude 10° 03:37:33 10° 338° (NNW) 3,466 6.3 -33.7°
Maximum altitude 03:46:18 88° 68° (ENE) 1,437 4.2 -31.6°
Drops below altitude 10° 03:55:03 10° 157° (SSE) 3,475 6.4 -29.5°
Sets 03:57:53 0° 157° (SSE) 4,402 7.0 -28.9°
